This is the latest recevied weather packets stored in our database for station/object KD4EG. If no packets are shown the sender has not sent any weather packets the latest 10 day(s).
| Time | Temp. | Humidity | Pressure | Rain* | Wind** | Luminosity | Snow |
|---|---|---|---|---|---|---|---|
| 1788635034 | 32.78° C | 50% | 1013.4 hPa | 0 mm | - | 591 W/m² | - |
| 1788634733 | 32.22° C | 51% | 1013.5 hPa | 0 mm | - | 615 W/m² | - |
| 1788634428 | 32.22° C | 53% | 1013.8 hPa | 0 mm | - | 614 W/m² | - |
| 1788634122 | 32.22° C | 53% | 1014.2 hPa | 0 mm | - | 604 W/m² | - |
| 1788633821 | 31.67° C | 58% | 1014.2 hPa | 0 mm | - | 642 W/m² | - |
| 1788633520 | 31.67° C | 57% | 1014.4 hPa | 0 mm | - | 704 W/m² | - |
| 1788633249 | 31.67° C | 56% | 1014.4 hPa | 0 mm | - | 674 W/m² | - |
| 1788632910 | 30.56° C | 58% | 1014.4 hPa | 0 mm | - | 718 W/m² | - |
| 1788632610 | 31.11° C | 60% | 1014.6 hPa | 0 mm | - | 701 W/m² | - |
| 1788632305 | 30° C | 61% | 1014.7 hPa | 0 mm | - | 592 W/m² | - |
| 1788632004 | 30° C | 62% | 1014.6 hPa | 0 mm | - | 394 W/m² | - |
| 1788631703 | 30° C | 62% | 1014.6 hPa | 0 mm | - | 396 W/m² | - |
| 1788631399 | 30.56° C | 62% | 1014.8 hPa | 0 mm | - | 363 W/m² | - |
| 1788631094 | 30.56° C | 61% | 1014.7 hPa | 0 mm | - | 384 W/m² | - |
| 1788630788 | 30° C | 62% | 1015 hPa | 0 mm | - | 386 W/m² | - |
| 1788630484 | 29.44° C | 62% | 1014.9 hPa | 0 mm | - | 271 W/m² | - |
| 1788630179 | 29.44° C | 61% | 1014.9 hPa | 0 mm | - | 212 W/m² | - |
| 1788629875 | 29.44° C | 61% | 1014.7 hPa | 0 mm | - | 166 W/m² | - |
| 1788629571 | 29.44° C | 61% | 1014.8 hPa | 0 mm | - | 147 W/m² | - |
| 1788629271 | 30° C | 61% | 1014.9 hPa | 0 mm | - | 164 W/m² | - |
| 1788628969 | 30° C | 61% | 1014.9 hPa | 0 mm | - | 196 W/m² | - |
| 1788628666 | 30° C | 61% | 1014.7 hPa | 0 mm | - | 240 W/m² | - |
| 1788628362 | 30° C | 61% | 1014.9 hPa | 0 mm | - | 258 W/m² | - |
| 1788628058 | 30° C | 61% | 1015.2 hPa | 0 mm | - | 280 W/m² | - |
| 1788627753 | 30° C | 62% | 1015 hPa | 0 mm | - | 372 W/m² | - |
* Rain latest hour (hover to see other rain measurements)
** Current wind speed in m/s (hover to see current wind gust speed)